Grub im Wienerwald
Wetterdaten: aktuell Mittwoch, 16.10.2019 10:21
Datum Zeit Temp. A. Feuchte A. Luftdruck Regen Wind Richtung Richtung Sonnenschein UV Solar Taupunkt Windchill Windben
16.10.2019 10:21 11,3 C 90 % 1015,7 hPa 0,0 l/m 9,3 km/h NW 310 3 min 1,3 UV-I 292 W/m 9,7 C 9,4 C 17,7 km/h
16.10.2019 10:18 11,2 C 90 % 1015,8 hPa 0,0 l/m 11,2 km/h N-NW 343 0 min 1,2 UV-I 211 W/m 9,6 C 8,3 C 16,1 km/h
16.10.2019 10:15 11,2 C 90 % 1015,7 hPa 0,0 l/m 7,7 km/h N-NW 341 0 min 1,1 UV-I 192 W/m 9,6 C 10,3 C 12,9 km/h
16.10.2019 10:12 11,1 C 90 % 1015,8 hPa 0,0 l/m 6,2 km/h NW 324 0 min 0,9 UV-I 127 W/m 9,5 C 11,1 C 12,9 km/h
16.10.2019 10:09 11,1 C 90 % 1015,9 hPa 0,0 l/m 10,1 km/h NW 318 0 min 0,9 UV-I 109 W/m 9,5 C 8,8 C 19,3 km/h
16.10.2019 10:06 11,1 C 90 % 1015,7 hPa 0,0 l/m 10,1 km/h N-NW 331 0 min 0,9 UV-I 123 W/m 9,5 C 8,8 C 17,7 km/h
16.10.2019 10:03 11,1 C 90 % 1015,7 hPa 0,0 l/m 12,2 km/h NW 319 0 min 0,8 UV-I 116 W/m 9,5 C 7,7 C 24,1 km/h
16.10.2019 10:00 11,1 C 91 % 1015,7 hPa 0,0 l/m 10,3 km/h N 350 0 min 0,7 UV-I 79 W/m 9,7 C 8,6 C 20,9 km/h
16.10.2019 09:57 11,0 C 91 % 1015,7 hPa 0,0 l/m 10,3 km/h N 11 0 min 0,8 UV-I 77 W/m 9,6 C 8,5 C 19,3 km/h
16.10.2019 09:54 11,0 C 91 % 1015,6 hPa 0,0 l/m 12,5 km/h N-NW 333 0 min 0,8 UV-I 93 W/m 9,6 C 7,4 C 19,3 km/h
16.10.2019 09:51 11,0 C 91 % 1015,5 hPa 0,0 l/m 11,8 km/h N-NW 338 0 min 0,9 UV-I 104 W/m 9,6 C 7,8 C 20,9 km/h
16.10.2019 09:48 11,0 C 91 % 1015,5 hPa 0,0 l/m 11,0 km/h W-NW 297 0 min 0,9 UV-I 132 W/m 9,6 C 8,2 C 22,5 km/h
16.10.2019 09:45 11,0 C 91 % 1015,5 hPa 0,0 l/m 11,8 km/h NW 304 0 min 0,8 UV-I 116 W/m 9,6 C 7,8 C 22,5 km/h
16.10.2019 09:42 11,0 C 91 % 1015,5 hPa 0,0 l/m 12,0 km/h NW 312 0 min 0,7 UV-I 83 W/m 9,6 C 7,7 C 20,9 km/h
16.10.2019 09:39 11,0 C 91 % 1015,4 hPa 0,0 l/m 10,7 km/h N-NW 338 0 min 0,8 UV-I 79 W/m 9,6 C 8,3 C 17,7 km/h
16.10.2019 09:36 11,0 C 91 % 1015,4 hPa 0,0 l/m 15,8 km/h N-NW 342 0 min 0,8 UV-I 100 W/m 9,6 C 6,0 C 32,2 km/h
16.10.2019 09:33 11,0 C 91 % 1015,3 hPa 0,0 l/m 10,4 km/h N-NW 346 0 min 0,8 UV-I 90 W/m 9,6 C 8,5 C 17,7 km/h
16.10.2019 09:30 10,9 C 91 % 1015,4 hPa 0,0 l/m 9,7 km/h NW 315 0 min 0,8 UV-I 84 W/m 9,5 C 8,8 C 19,3 km/h
16.10.2019 09:27 10,9 C 91 % 1015,3 hPa 0,2 l/m 10,9 km/h N-NW 348 0 min 0,7 UV-I 91 W/m 9,5 C 8,1 C 20,9 km/h
16.10.2019 09:24 10,9 C 91 % 1015,2 hPa 0,0 l/m 12,1 km/h N 360 0 min 0,6 UV-I 70 W/m 9,5 C 7,5 C 25,7 km/h
16.10.2019 09:21 10,9 C 91 % 1015,2 hPa 0,0 l/m 9,4 km/h N-NW 333 0 min 0,0 UV-I 49 W/m 9,5 C 8,9 C 16,1 km/h
16.10.2019 09:18 10,9 C 91 % 1015,3 hPa 0,0 l/m 15,4 km/h N 350 0 min 0,0 UV-I 33 W/m 9,5 C 6,1 C 27,4 km/h
16.10.2019 09:15 11,0 C 91 % 1015,2 hPa 0,0 l/m 11,7 km/h N-NW 344 0 min 0,0 UV-I 26 W/m 9,6 C 7,8 C 22,5 km/h
16.10.2019 09:12 11,0 C 91 % 1015,3 hPa 0,0 l/m 13,1 km/h N-NO 20 0 min 0,0 UV-I 23 W/m 9,6 C 7,2 C 27,4 km/h
16.10.2019 09:09 11,0 C 91 % 1015,2 hPa 0,0 l/m 8,4 km/h N-NW 342 0 min 0,0 UV-I 23 W/m 9,6 C 9,6 C 19,3 km/h
16.10.2019 09:06 11,0 C 91 % 1015,2 hPa 0,0 l/m 7,2 km/h N-NW 327 0 min 0,0 UV-I 23 W/m 9,6 C 10,4 C 14,5 km/h
16.10.2019 09:03 11,1 C 91 % 1015,1 hPa 0,0 l/m 13,1 km/h N-NW 330 0 min 0,0 UV-I 28 W/m 9,7 C 7,3 C 27,4 km/h
16.10.2019 09:00 11,1 C 91 % 1014,9 hPa 0,0 l/m 10,9 km/h N-NW 329 0 min 0,0 UV-I 28 W/m 9,7 C 8,3 C 19,3 km/h
16.10.2019 08:57 11,1 C 90 % 1015,1 hPa 0,0 l/m 9,2 km/h NW 326 0 min 0,0 UV-I 33 W/m 9,5 C 9,3 C 19,3 km/h
16.10.2019 08:54 11,2 C 90 % 1015,0 hPa 0,0 l/m 11,6 km/h NW 325 0 min 0,0 UV-I 47 W/m 9,6 C 8,1 C 25,7 km/h
16.10.2019 08:51 11,2 C 90 % 1015,0 hPa 0,0 l/m 9,8 km/h N-NW 343 0 min 0,0 UV-I 47 W/m 9,6 C 9,0 C 16,1 km/h
16.10.2019 08:48 11,2 C 90 % 1015,0 hPa 0,0 l/m 11,6 km/h NW 326 0 min 0,0 UV-I 33 W/m 9,6 C 8,1 C 25,7 km/h
16.10.2019 08:45 11,3 C 89 % 1015,1 hPa 0,0 l/m 11,3 km/h N-NW 332 0 min 0,0 UV-I 26 W/m 9,6 C 8,4 C 20,9 km/h
16.10.2019 08:42 11,3 C 89 % 1015,0 hPa 0,0 l/m 10,3 km/h NW 312 0 min 0,0 UV-I 26 W/m 9,6 C 8,9 C 22,5 km/h
16.10.2019 08:39 11,4 C 89 % 1014,9 hPa 0,0 l/m 9,6 km/h N 350 0 min 0,0 UV-I 21 W/m 9,7 C 9,4 C 17,7 km/h
16.10.2019 08:36 11,4 C 89 % 1014,9 hPa 0,2 l/m 7,8 km/h N 355 0 min 0,0 UV-I 16 W/m 9,7 C 10,5 C 14,5 km/h
16.10.2019 08:33 11,5 C 88 % 1014,9 hPa 0,0 l/m 7,4 km/h N 350 0 min 0,0 UV-I 18 W/m 9,6 C 10,8 C 11,3 km/h
16.10.2019 08:30 11,6 C 88 % 1014,9 hPa 0,0 l/m 7,9 km/h NW 309 0 min 0,0 UV-I 16 W/m 9,7 C 10,6 C 14,5 km/h
16.10.2019 08:27 11,6 C 88 % 1014,9 hPa 0,2 l/m 10,2 km/h NW 325 0 min 0,0 UV-I 16 W/m 9,7 C 9,3 C 20,9 km/h
16.10.2019 08:24 11,7 C 87 % 1014,8 hPa 0,0 l/m 10,0 km/h N-NW 331 0 min 0,0 UV-I 18 W/m 9,6 C 9,5 C 19,3 km/h
16.10.2019 08:21 11,7 C 87 % 1014,7 hPa 0,0 l/m 10,9 km/h NW 319 0 min 0,0 UV-I 19 W/m 9,6 C 9,0 C 19,3 km/h
16.10.2019 08:18 11,8 C 86 % 1014,7 hPa 0,0 l/m 10,2 km/h NW 320 0 min 0,0 UV-I 21 W/m 9,5 C 9,5 C 19,3 km/h
16.10.2019 08:15 11,8 C 86 % 1014,6 hPa 0,0 l/m 11,1 km/h NW 324 0 min 0,0 UV-I 25 W/m 9,5 C 9,0 C 20,9 km/h
16.10.2019 08:12 11,9 C 86 % 1014,5 hPa 0,2 l/m 9,2 km/h N-NW 327 0 min 0,0 UV-I 28 W/m 9,6 C 10,1 C 19,3 km/h
16.10.2019 08:09 11,9 C 85 % 1014,4 hPa 0,0 l/m 12,2 km/h N-NW 328 0 min 0,0 UV-I 26 W/m 9,5 C 8,6 C 20,9 km/h
16.10.2019 08:06 12,1 C 85 % 1014,2 hPa 0,0 l/m 11,8 km/h N-NW 327 0 min 0,0 UV-I 21 W/m 9,7 C 9,0 C 19,3 km/h
16.10.2019 08:03 12,1 C 84 % 1014,1 hPa 0,0 l/m 12,8 km/h NW 317 0 min 0,0 UV-I 12 W/m 9,5 C 8,6 C 22,5 km/h
16.10.2019 08:00 12,2 C 84 % 1014,1 hPa 0,0 l/m 13,8 km/h NW 318 0 min 0,0 UV-I 9 W/m 9,6 C 8,3 C 24,1 km/h
16.10.2019 07:57 12,2 C 83 % 1014,0 hPa 0,0 l/m 12,2 km/h NW 322 0 min 0,0 UV-I 7 W/m 9,4 C 9,0 C 22,5 km/h
16.10.2019 07:54 12,3 C 83 % 1014,1 hPa 0,0 l/m 11,6 km/h N 360 0 min 0,0 UV-I 7 W/m 9,5 C 9,3 C 22,5 km/h
16.10.2019 07:51 12,3 C 83 % 1013,9 hPa 0,0 l/m 10,2 km/h N-NW 337 0 min 0,0 UV-I 7 W/m 9,5 C 10,0 C 17,7 km/h
16.10.2019 07:48 12,3 C 83 % 1013,9 hPa 0,0 l/m 9,8 km/h N-NW 348 0 min 0,0 UV-I 5 W/m 9,5 C 10,2 C 16,1 km/h
16.10.2019 07:45 12,4 C 83 % 1013,8 hPa 0,0 l/m 10,7 km/h W-NW 288 0 min 0,0 UV-I 0 W/m 9,6 C 9,9 C 33,8 km/h
16.10.2019 07:42 12,4 C 82 % 1013,7 hPa 0,0 l/m 6,8 km/h N 350 0 min 0,0 UV-I 0 W/m 9,4 C 12,1 C 14,5 km/h
16.10.2019 07:39 12,4 C 82 % 1013,6 hPa 0,0 l/m 9,5 km/h W-NW 287 0 min 0,0 UV-I 0 W/m 9,4 C 10,5 C 20,9 km/h
16.10.2019 07:36 12,4 C 82 % 1013,5 hPa 0,0 l/m 11,6 km/h N-NW 332 0 min 0,0 UV-I 0 W/m 9,4 C 9,5 C 20,9 km/h
16.10.2019 07:33 12,4 C 82 % 1013,4 hPa 0,0 l/m 5,1 km/h NW 326 0 min 0,0 UV-I 0 W/m 9,4 C 12,4 C 9,7 km/h
16.10.2019 07:30 12,4 C 82 % 1013,3 hPa 0,0 l/m 11,2 km/h W 275 0 min 0,0 UV-I 0 W/m 9,4 C 9,6 C 24,1 km/h
16.10.2019 07:27 12,4 C 82 % 1013,4 hPa 0,0 l/m 10,2 km/h N 351 0 min 0,0 UV-I 0 W/m 9,4 C 10,1 C 19,3 km/h
16.10.2019 07:24 12,5 C 82 % 1013,2 hPa 0,0 l/m 9,0 km/h N-NW 332 0 min 0,0 UV-I 0 W/m 9,5 C 10,9 C 12,9 km/h
16.10.2019 07:21 12,4 C 82 % 1013,2 hPa 0,0 l/m 9,0 km/h W-NW 296 0 min 0,0 UV-I 0 W/m 9,4 C 10,8 C 19,3 km/h
16.10.2019 07:18 12,5 C 82 % 1013,2 hPa 0,0 l/m 12,6 km/h N-NW 327 0 min 0,0 UV-I 0 W/m 9,5 C 9,1 C 33,8 km/h
16.10.2019 07:15 12,5 C 83 % 1013,2 hPa 0,0 l/m 15,3 km/h N-NW 344 0 min 0,0 UV-I 0 W/m 9,7 C 8,1 C 27,4 km/h
16.10.2019 07:12 12,5 C 83 % 1013,1 hPa 0,0 l/m 10,1 km/h N 350 0 min 0,0 UV-I 0 W/m 9,7 C 10,3 C 17,7 km/h
16.10.2019 07:09 12,5 C 83 % 1013,3 hPa 0,0 l/m 15,2 km/h NW 304 0 min 0,0 UV-I 0 W/m 9,7 C 8,1 C 32,2 km/h
16.10.2019 07:06 12,5 C 83 % 1013,1 hPa 0,0 l/m 13,2 km/h N 360 0 min 0,0 UV-I 0 W/m 9,7 C 8,9 C 22,5 km/h
16.10.2019 07:03 12,6 C 83 % 1013,0 hPa 0,0 l/m 11,5 km/h N-NW 331 0 min 0,0 UV-I 0 W/m 9,8 C 9,7 C 22,5 km/h
16.10.2019 07:00 12,6 C 83 % 1013,0 hPa 0,0 l/m 9,3 km/h W 271 0 min 0,0 UV-I 0 W/m 9,8 C 10,8 C 16,1 km/h
16.10.2019 06:57 12,6 C 83 % 1013,0 hPa 0,0 l/m 12,4 km/h W-NW 296 0 min 0,0 UV-I 0 W/m 9,8 C 9,3 C 27,4 km/h
16.10.2019 06:54 12,6 C 83 % 1012,9 hPa 0,0 l/m 11,5 km/h N-NW 331 0 min 0,0 UV-I 0 W/m 9,8 C 9,7 C 29,0 km/h
16.10.2019 06:51 12,6 C 83 % 1013,0 hPa 0,0 l/m 8,3 km/h NW 319 0 min 0,0 UV-I 0 W/m 9,8 C 11,4 C 16,1 km/h
16.10.2019 06:48 12,7 C 83 % 1013,0 hPa 0,0 l/m 11,0 km/h N 360 0 min 0,0 UV-I 0 W/m 9,9 C 10,1 C 20,9 km/h
16.10.2019 06:45 12,7 C 83 % 1012,8 hPa 0,0 l/m 12,7 km/h N-NW 336 0 min 0,0 UV-I 0 W/m 9,9 C 9,3 C 20,9 km/h
16.10.2019 06:42 12,7 C 84 % 1012,8 hPa 0,0 l/m 10,7 km/h W-NW 294 0 min 0,0 UV-I 0 W/m 10,1 C 10,2 C 19,3 km/h
16.10.2019 06:39 12,7 C 84 % 1012,7 hPa 0,0 l/m 12,6 km/h N-NW 337 0 min 0,0 UV-I 0 W/m 10,1 C 9,4 C 24,1 km/h
16.10.2019 06:36 12,7 C 84 % 1012,7 hPa 0,0 l/m 11,4 km/h N-NW 337 0 min 0,0 UV-I 0 W/m 10,1 C 9,9 C 27,4 km/h
16.10.2019 06:33 12,7 C 84 % 1012,7 hPa 0,0 l/m 18,7 km/h N-NW 337 0 min 0,0 UV-I 0 W/m 10,1 C 7,2 C 30,6 km/h
16.10.2019 06:30 12,7 C 84 % 1012,7 hPa 0,0 l/m 9,7 km/h NW 323 0 min 0,0 UV-I 0 W/m 10,1 C 10,7 C 16,1 km/h
16.10.2019 06:27 12,7 C 84 % 1012,7 hPa 0,0 l/m 12,7 km/h N-NW 345 0 min 0,0 UV-I 0 W/m 10,1 C 9,3 C 22,5 km/h
16.10.2019 06:24 12,8 C 84 % 1012,6 hPa 0,0 l/m 11,7 km/h N-NW 343 0 min 0,0 UV-I 0 W/m 10,2 C 9,9 C 19,3 km/h
16.10.2019 06:21 12,8 C 84 % 1012,5 hPa 0,0 l/m 10,0 km/h NW 320 0 min 0,0 UV-I 0 W/m 10,2 C 10,7 C 19,3 km/h
16.10.2019 06:18 12,8 C 85 % 1012,6 hPa 0,0 l/m 11,6 km/h W-NW 291 0 min 0,0 UV-I 0 W/m 10,3 C 9,9 C 17,7 km/h
16.10.2019 06:15 12,8 C 85 % 1012,3 hPa 0,0 l/m 8,7 km/h NW 318 0 min 0,0 UV-I 0 W/m 10,3 C 11,4 C 16,1 km/h
16.10.2019 06:12 12,9 C 85 % 1012,2 hPa 0,0 l/m 11,0 km/h N-NW 335 0 min 0,0 UV-I 0 W/m 10,4 C 10,3 C 17,7 km/h
16.10.2019 06:09 12,9 C 85 % 1012,1 hPa 0,0 l/m 15,2 km/h N-NW 329 0 min 0,0 UV-I 0 W/m 10,4 C 8,6 C 30,6 km/h
16.10.2019 06:06 12,9 C 85 % 1012,1 hPa 0,0 l/m 15,6 km/h N 360 0 min 0,0 UV-I 0 W/m 10,4 C 8,4 C 27,4 km/h
16.10.2019 06:03 12,9 C 86 % 1012,1 hPa 0,0 l/m 13,4 km/h N-NW 327 0 min 0,0 UV-I 0 W/m 10,6 C 9,3 C 25,7 km/h
16.10.2019 06:00 12,9 C 86 % 1012,0 hPa 0,0 l/m 16,0 km/h NW 306 0 min 0,0 UV-I 0 W/m 10,6 C 8,3 C 30,6 km/h
16.10.2019 05:57 12,9 C 87 % 1012,1 hPa 0,0 l/m 14,7 km/h N-NW 343 0 min 0,0 UV-I 0 W/m 10,8 C 8,8 C 33,8 km/h
16.10.2019 05:54 13,0 C 88 % 1011,9 hPa 0,0 l/m 11,3 km/h NW 322 0 min 0,0 UV-I 0 W/m 11,1 C 10,3 C 24,1 km/h
16.10.2019 05:51 13,1 C 89 % 1011,8 hPa 0,0 l/m 10,2 km/h N-NW 329 0 min 0,0 UV-I 0 W/m 11,3 C 10,9 C 24,1 km/h
_ Min-Zeit 01:27 15:51 18:15 - 19:27 - - - - - 01:27 09:36 19:27
Minimum _ 7,1 C 61 % 1005,6 hPa - 0,0 km/h - - - - - 6,4 C 6,0 C 0,0 km/h
_ Max-Zeit 15:12 11:12 10:09 08:12 06:33 - - 11:39 13:09 13:15 12:57 14:36 15:51
Maximum _ 21,1 C 99 % 1015,9 hPa 0,2 l/m 18,7 km/h
N-NW
- - 3 min 3,7 UV-I 647 W/m 14,9 C 20,2 C 37,0 km/h
S-SO
Durchschnitt _ 13,0 C 87 % 1009,1 hPa #0,8 l/m 6,2 km/h SO - #3 min. 0,9 UV-I 60 W/m 10,7 C 12,0 C 12,6 km/h
Schulla EDV